EHI
0 0 0 0 0 0 0 0 0 1 1 1 1 2 4 4 2 2 5 13 23 27 29 40 48 44 34 27 19 13 12 10 9 9 11 13 15 17 16 12 12 13 10 7 6 6 4 4 5
0 0 0 0 0 0 0 0 0 1 1 1 2 4 5 5 5 5 7 15 22 25 28 38 48 45 35 26 19 12 11 10 8 7 8 11 13 14 14 11 10 10 8 6 6 6 4 4 5
0 0 0 0 0 0 0 0 1 2 1 1 3 5 6 7 8 8 12 18 22 22 27 36 44 41 33 25 19 13 10 9 8 6 6 8 10 11 11 9 7 6 6 5 5 6 5 4 4
0 0 0 0 0 0 0 1 2 2 2 2 4 5 5 8 12 16 21 24 23 22 27 36 40 36 29 25 21 16 12 10 7 5 6 7 8 9 9 7 5 5 4 4 4 5 4 3 2
0 0 0 0 0 0 0 1 3 3 3 5 6 7 7 11 21 28 29 29 28 27 30 38 40 35 28 24 22 20 16 12 8 5 6 8 9 9 8 6 5 4 3 4 4 5 3 2 2
0 0 0 0 0 0 1 2 3 3 4 7 9 10 11 17 27 33 34 34 34 34 36 39 39 34 29 26 24 23 19 15 12 9 8 9 10 9 8 8 5 3 2 3 4 4 3 2 2
0 0 0 0 0 0 1 2 2 3 4 6 8 9 10 17 27 32 34 36 37 39 39 39 36 32 29 27 26 25 22 18 16 13 10 10 10 10 10 9 6 3 2 2 3 3 2 2 2
0 0 0 0 0 1 1 1 1 1 2 4 6 6 8 17 28 35 37 39 39 38 37 37 35 32 29 26 25 25 24 20 16 14 11 9 8 9 9 8 6 4 3 4 4 4 2 2 2
0 0 0 0 0 1 1 1 0 0 0 2 4 7 13 22 32 38 41 41 39 35 33 34 34 32 28 24 21 22 22 19 15 11 8 6 6 7 7 6 5 5 4 4 5 4 2 1 1
0 0 0 0 0 0 0 0 0 0 0 2 7 13 21 29 35 39 41 41 37 32 30 32 33 30 26 22 18 18 18 16 12 7 4 3 3 3 3 4 4 4 3 3 4 4 2 0 0
0 0 0 0 0 0 0 0 0 0 0 3 10 17 25 31 35 37 38 38 36 31 28 29 30 27 23 20 17 17 16 12 8 6 4 2 1 1 1 2 3 3 2 2 2 2 1 0 0
0 0 1 1 0 0 0 0 1 1 1 4 11 18 24 30 33 35 36 35 34 31 28 27 28 26 21 18 16 16 15 11 7 7 6 4 2 1 0 1 1 1 1 1 1 1 0 0 0
0 0 1 2 1 1 1 2 2 2 3 6 12 17 21 26 30 32 33 34 33 32 29 28 28 25 21 19 17 15 14 11 8 7 7 5 3 1 0 1 1 0 0 0 0 0 0 0 0
0 0 1 2 2 2 4 4 4 3 5 9 13 15 16 21 24 26 28 32 33 30 27 27 27 24 22 22 21 17 14 12 10 8 6 4 3 1 0 1 1 0 0 0 0 0 0 0 0
0 0 0 1 1 1 3 5 4 4 5 8 12 13 13 14 18 22 27 30 32 30 26 24 26 25 24 23 22 20 18 15 11 9 6 4 2 1 0 1 1 0 0 0 0 0 0 0 0
0 0 0 0 0 0 1 3 4 4 4 5 10 13 13 11 14 22 28 31 32 31 26 25 28 28 25 23 22 21 19 16 12 9 7 4 3 1 1 0 0 0 0 0 0 0 0 0 0
0 0 0 1 1 1 1 3 3 2 3 4 8 13 14 13 15 22 29 32 33 32 30 30 33 32 28 25 22 19 18 15 12 9 8 5 3 3 2 1 1 1 0 0 0 0 0 0 0
0 0 0 1 1 2 3 2 1 1 2 5 8 12 14 15 17 22 30 34 35 34 33 35 34 32 30 27 22 18 15 11 9 8 7 6 4 3 3 3 2 2 1 1 1 1 0 0 0
0 0 0 1 2 3 3 2 1 0 1 4 8 11 13 16 19 24 31 36 35 34 34 34 32 29 27 25 21 17 12 8 6 5 5 4 4 4 3 3 3 3 3 2 2 2 1 0 0
0 0 1 2 3 3 2 1 0 0 1 3 6 11 15 18 21 26 32 36 35 33 32 31 29 26 23 20 17 14 11 8 6 5 4 4 4 4 3 2 2 3 3 3 3 3 2 1 0
0 0 1 2 3 2 1 0 0 1 2 4 8 13 17 20 22 27 32 34 33 31 29 28 26 22 17 14 12 12 11 9 6 6 4 3 4 4 2 1 1 1 2 2 3 3 3 2 1
0 0 1 2 2 1 0 0 0 1 3 5 9 14 17 19 21 26 29 29 28 28 27 25 22 18 13 9 9 10 10 6 4 4 4 3 3 3 2 1 0 0 1 1 1 2 2 1 0
0 0 1 1 1 0 0 0 1 2 3 5 8 11 13 15 20 26 27 26 25 25 25 22 18 14 10 7 7 7 7 4 4 5 4 3 2 2 2 1 0 0 0 0 0 1 1 0 0
0 0 0 0 0 0 0 0 1 3 5 7 9 9 9 13 20 25 28 28 27 26 24 19 16 12 9 7 6 6 6 5 5 6 5 3 1 1 1 0 0 0 0 0 0 0 0 0 0
0 0 0 0 0 0 0 0 1 3 7 10 11 9 10 13 18 22 25 28 28 26 21 18 16 13 10 7 7 6 6 6 6 6 5 3 1 0 0 0 0 0 0 0 0 0 0 0 0
0 0 0 0 0 0 0 0 1 4 8 11 11 9 9 11 15 19 21 22 23 21 17 16 16 14 11 9 7 7 6 6 6 5 4 3 1 0 0 0 0 0 1 1 0 0 0 0 0
0 0 0 0 0 0 0 1 3 5 7 9 9 7 6 9 13 16 17 17 16 15 13 13 13 12 11 10 8 7 7 7 7 6 4 3 1 1 1 0 1 1 2 2 1 1 0 0 0
0 0 0 0 0 0 0 1 3 5 6 6 7 6 5 8 12 14 14 14 11 9 9 11 12 11 11 10 8 8 8 8 8 8 6 3 2 2 2 2 2 3 3 3 3 3 2 1 1
0 0 0 0 0 0 0 0 2 4 4 4 5 5 5 6 10 12 13 11 8 5 6 9 11 11 11 10 8 7 8 8 8 8 6 4 3 4 4 3 3 4 4 3 3 4 4 3 2
0 0 0 0 0 0 0 0 2 4 4 4 4 4 4 6 9 12 12 10 6 4 5 9 11 11 11 10 8 6 7 7 7 7 5 3 3 4 5 5 4 4 4 3 3 4 5 4 3
Wind_Speed
3 2 1 2 5 4 2 3 1 4 4 3 6 9 8 5 4 4 3 11 14 12 9 12 14 14 13 13 12 12 11 11 11 11 11 11 11 11 11 11 10 10 10 10 10 10 9 9 9
2 2 2 4 5 2 4 3 2 1 1 4 7 9 8 6 6 8 6 11 14 12 8 10 14 14 13 12 11 11 11 11 11 11 11 11 10 10 10 10 10 9 9 9 9 9 8 8 8
2 2 3 4 2 3 3 3 2 2 2 4 4 5 6 6 8 6 8 14 13 11 8 10 15 13 13 12 12 11 11 11 11 11 10 10 10 9 9 10 9 9 8 8 8 8 7 7 7
1 3 4 4 2 5 5 6 3 3 3 4 6 5 4 4 6 9 15 15 13 10 9 11 15 14 13 12 12 11 11 11 11 10 10 9 9 9 9 9 9 8 8 8 8 7 7 6 6
3 4 4 1 4 5 4 6 2 2 1 3 7 6 3 3 12 17 16 14 13 10 8 10 14 14 13 12 12 11 11 10 10 10 9 9 8 8 8 9 9 8 8 7 7 6 6 5 5
3 4 3 2 4 5 3 2 3 3 2 3 6 6 3 7 14 14 14 12 12 12 9 9 13 14 13 12 11 11 10 10 10 10 9 8 8 8 7 8 8 8 7 7 7 6 5 5 4
3 3 3 3 3 5 3 0 3 2 1 1 5 6 4 6 11 13 12 12 11 11 9 7 8 9 12 12 11 10 10 10 9 9 9 8 8 8 7 7 8 7 7 7 7 6 5 5 4
5 3 1 2 2 4 3 1 2 3 1 1 5 8 7 8 10 11 11 10 10 9 9 7 6 6 6 7 11 10 10 10 9 9 9 9 8 7 7 6 7 8 8 7 6 5 5 5 4
3 3 4 5 4 4 1 1 0 1 3 2 2 5 9 13 13 11 9 8 8 8 7 7 6 5 5 5 8 9 9 8 8 7 8 7 3 3 4 5 7 8 8 7 6 5 4 4 4
4 4 8 7 6 4 2 2 3 2 3 2 3 6 11 13 13 13 11 10 9 9 8 7 7 6 6 5 4 3 4 4 3 3 3 3 2 2 3 5 7 7 7 7 6 5 3 2 1
4 7 7 6 7 4 2 2 2 5 2 4 7 10 11 12 11 12 11 11 11 11 9 8 8 7 6 4 4 2 2 2 2 3 3 2 2 2 1 1 2 2 3 2 2 1 1 1 1
3 6 6 6 5 3 3 3 1 3 5 6 8 10 10 11 11 11 11 10 9 10 9 8 8 7 6 5 4 4 3 2 2 3 4 3 2 2 2 1 1 1 1 1 1 1 1 1 2
4 5 5 5 4 4 3 4 3 2 3 5 7 9 9 10 9 8 9 10 10 9 8 8 7 6 6 5 4 4 4 4 3 3 3 4 3 3 2 2 2 2 1 1 1 1 1 2 2
5 4 5 3 3 3 3 2 1 3 4 6 6 7 8 8 9 8 7 8 9 8 8 7 7 6 6 5 4 4 4 3 3 3 3 4 3 3 3 3 2 2 1 2 2 2 2 2 2
2 3 6 4 4 3 3 1 3 5 5 7 6 6 6 6 8 10 10 9 9 9 7 7 7 6 6 5 5 4 4 4 3 3 3 4 3 3 3 3 2 2 2 2 2 2 2 2 2
3 2 4 7 3 3 5 4 5 3 6 5 5 6 5 4 6 7 8 8 8 8 6 5 6 7 6 4 3 3 3 3 3 3 3 4 4 4 3 3 3 2 2 2 2 2 2 2 2
3 2 5 8 4 2 4 4 5 3 5 5 4 5 5 5 4 5 7 8 8 9 8 5 5 6 6 5 3 2 3 3 3 3 3 4 4 4 4 3 2 3 2 2 2 2 2 2 1
5 4 4 6 4 1 3 4 4 2 5 5 4 5 6 7 6 7 7 7 7 7 8 6 5 5 5 4 3 2 2 2 2 2 3 4 3 4 4 3 3 3 3 2 2 3 2 2 1
5 5 7 8 4 1 2 3 3 1 4 5 4 4 5 6 5 5 7 7 6 6 7 6 5 5 5 3 3 2 2 2 2 2 3 3 4 4 4 3 3 3 3 3 3 3 3 2 1
6 6 7 6 3 0 0 2 2 1 3 6 6 6 6 6 5 5 6 6 6 6 6 6 6 5 5 4 3 2 2 2 2 2 2 2 3 4 4 4 3 3 3 3 3 3 2 1 1
8 7 6 5 4 3 2 4 4 2 0 2 4 6 7 9 8 7 7 6 6 6 6 5 5 4 4 4 3 3 2 2 2 1 1 1 2 3 3 4 3 3 3 3 3 3 4 2 1
8 8 6 4 1 3 1 2 6 3 1 1 3 4 5 6 7 7 7 7 6 6 5 5 4 4 4 4 5 5 4 3 2 2 2 2 2 3 3 3 3 3 3 3 3 3 3 4 2
8 6 4 3 2 1 1 2 6 2 1 2 2 4 4 5 6 7 7 7 6 6 5 4 4 4 4 5 5 5 4 3 2 2 3 2 1 2 3 4 4 3 2 3 3 3 3 2 2
4 1 3 3 3 1 3 3 4 3 4 2 2 4 4 5 5 5 5 5 5 5 5 5 5 4 3 4 5 5 5 5 4 3 3 2 1 1 2 3 3 3 2 3 3 3 3 2 2
2 5 3 4 3 4 2 2 5 4 3 3 3 3 4 4 5 6 6 6 5 5 5 6 6 4 4 4 4 5 5 5 5 4 4 3 2 1 1 2 3 3 3 3 3 3 3 3 3
4 8 7 4 4 4 1 3 5 2 2 4 5 5 5 5 4 5 6 6 5 6 5 6 6 5 4 4 4 4 5 4 3 4 3 3 2 2 2 2 3 3 3 3 3 2 2 2 2
4 4 7 6 2 1 2 1 3 1 2 2 4 4 4 5 5 5 5 5 5 6 5 5 5 5 4 4 4 3 4 4 4 4 3 2 2 2 2 2 2 2 3 3 3 2 2 2 2
7 6 5 5 3 2 2 2 4 3 2 1 3 3 2 4 6 5 4 4 4 4 4 4 4 4 4 3 3 3 4 4 4 4 4 3 2 2 3 2 2 2 2 3 3 2 2 2 1
2 3 4 4 5 5 3 5 5 8 6 5 3 3 4 5 6 5 4 4 4 4 5 4 4 4 4 4 3 4 3 3 4 3 3 3 3 3 3 3 3 3 3 2 3 2 2 2 1
5 6 7 5 4 4 4 5 3 5 5 5 4 2 3 5 5 5 4 4 4 5 4 4 4 4 4 3 3 4 4 4 4 3 3 3 3 2 3 3 3 3 2 2 3 2 2 2 2
Wind_Direction
208 195 134 60 48 41 303 273 256 1 14 36 78 92 94 81 117 141 151 138 134 140 144 140 135 131 127 123 120 117 116 116 114 112 111 110 111 112 113 114 116 117 119 120 119 117 115 115 113
210 178 70 56 73 23 292 270 331 53 104 95 84 91 87 78 96 115 124 140 138 138 140 141 138 135 131 127 126 125 123 121 120 119 116 115 116 117 119 119 121 121 122 121 121 121 118 116 116
229 160 90 72 101 185 260 276 300 347 86 83 86 71 89 113 119 132 146 143 138 137 143 149 142 138 135 134 135 133 131 128 126 125 123 122 122 123 125 127 128 128 128 127 127 126 121 122 121
100 55 53 76 245 233 225 260 278 353 21 57 93 70 72 115 136 137 140 141 137 139 146 150 145 144 143 142 141 139 137 136 134 132 129 128 128 131 133 137 138 138 137 138 138 135 136 136 131
77 79 58 1 260 259 240 244 228 93 35 84 92 93 56 56 117 131 140 142 140 142 147 151 148 149 149 147 145 145 144 142 141 140 137 137 135 136 138 143 145 147 146 146 149 151 151 144 142
59 74 83 263 269 281 269 228 77 83 109 115 107 110 96 126 127 138 141 144 144 145 148 151 151 152 154 153 152 150 150 149 146 144 144 145 145 145 147 152 154 155 156 158 160 169 170 163 156
123 109 183 226 268 291 281 123 107 104 106 151 129 110 120 146 143 141 139 138 140 144 146 149 156 158 158 157 156 153 154 153 153 152 151 153 154 154 158 163 167 166 165 167 172 180 186 180 179
151 109 256 252 263 273 283 6 137 146 193 131 118 132 159 173 150 135 130 130 134 141 145 149 152 152 154 159 160 156 157 154 156 160 159 160 162 163 169 173 178 178 175 173 178 189 198 201 200
123 101 236 226 214 245 234 66 207 160 109 81 107 143 156 150 139 131 126 125 137 145 150 151 150 150 154 160 162 160 159 161 161 166 167 165 164 169 176 182 183 185 181 181 186 194 203 207 214
131 171 226 220 207 221 226 187 197 114 69 62 68 107 134 142 142 143 146 150 156 160 162 157 155 159 159 163 154 159 160 160 162 163 168 160 162 182 177 186 183 186 189 189 189 192 194 189 198
183 201 232 241 228 212 200 232 200 136 147 180 160 152 151 149 149 151 157 162 165 163 161 163 161 164 164 160 153 161 155 155 166 164 165 156 156 173 169 158 178 179 177 169 185 189 171 141 131
234 250 235 232 226 199 201 210 218 168 198 184 161 155 153 149 155 161 160 164 160 158 164 167 163 161 164 158 164 162 159 163 173 178 169 154 154 159 161 157 158 153 143 142 143 158 166 143 140
255 258 252 238 233 220 207 205 187 207 189 158 149 146 157 161 161 161 159 158 153 157 161 165 159 160 160 155 166 159 167 171 172 173 170 161 162 166 163 159 162 165 146 141 141 152 151 141 119
242 258 274 257 241 225 195 245 153 221 163 148 152 155 166 174 164 152 150 154 153 156 163 160 160 161 158 159 162 161 167 167 164 168 175 167 162 160 159 151 151 150 147 143 141 147 137 130 128
276 314 310 280 234 221 118 344 232 207 153 156 164 162 163 178 161 159 165 163 160 153 159 164 158 150 152 158 159 152 158 160 166 172 174 167 164 162 155 147 145 146 139 130 128 112 110 123 124
349 349 288 279 234 229 133 224 255 213 147 157 159 151 155 169 157 155 158 153 149 143 144 158 157 148 148 144 145 146 149 153 159 164 166 165 163 159 147 145 147 146 135 128 127 107 100 101 106
347 258 262 286 261 206 143 208 249 210 154 165 163 158 159 141 137 139 144 149 150 146 148 150 146 144 143 137 130 137 139 143 149 152 158 164 163 158 149 145 143 139 128 125 130 104 114 114 108
252 252 264 266 277 129 158 217 249 204 153 157 162 162 151 146 156 151 143 142 145 139 138 143 137 132 127 119 113 109 117 136 138 148 159 155 158 153 141 138 137 132 127 125 119 115 112 121 133
247 263 274 274 268 129 198 232 251 196 133 138 143 148 158 156 148 134 138 137 127 127 131 136 134 133 128 126 128 137 160 158 148 163 163 158 156 148 139 135 132 132 138 149 142 122 111 101 100
255 265 273 285 299 83 231 304 279 198 170 171 159 151 145 135 130 141 141 136 136 138 141 139 143 145 144 145 145 160 146 154 156 155 146 150 146 145 145 139 142 142 136 136 136 123 113 100 95
256 241 242 262 328 29 77 335 310 297 129 152 148 146 145 149 158 161 154 151 147 148 146 142 146 147 147 139 129 116 85 78 82 101 128 139 137 135 139 144 145 146 145 151 149 137 133 139 90
255 249 232 245 297 289 133 249 282 282 9 99 141 139 153 155 160 161 156 157 159 158 144 139 151 147 143 139 141 143 140 140 159 149 144 126 116 124 136 134 135 139 142 147 154 139 134 137 149
232 242 225 229 205 301 330 148 279 343 295 256 186 155 154 155 162 162 162 162 157 153 148 149 151 150 148 147 148 144 133 136 124 122 123 119 110 118 129 130 125 128 136 143 138 133 131 136 152
218 47 9 33 73 300 258 166 267 261 223 219 158 137 143 152 148 146 141 141 140 140 147 146 149 149 150 147 142 143 143 138 131 133 139 136 123 117 125 130 128 136 141 142 143 140 139 143 143
135 93 29 355 6 252 251 149 245 248 198 165 147 129 132 128 125 134 135 137 136 139 155 156 153 155 154 143 143 147 150 146 149 154 151 147 138 133 160 148 139 143 147 145 139 137 145 151 147
187 142 159 196 220 257 297 205 245 239 158 135 130 120 117 113 117 133 142 141 148 152 155 156 157 156 155 145 144 150 150 143 144 147 148 153 158 166 159 147 141 143 145 143 136 132 150 145 148
173 183 174 150 202 208 254 244 314 17 82 101 113 107 118 134 137 140 140 140 149 154 153 152 146 138 137 135 127 123 129 129 130 131 128 134 141 142 131 137 141 149 150 148 140 135 141 133 143
165 159 106 123 168 230 259 228 218 215 190 161 137 147 150 146 142 136 126 124 139 145 133 126 124 128 122 129 141 131 123 127 129 124 123 125 122 114 118 124 134 133 135 140 135 134 144 137 155
143 133 132 140 158 157 216 257 212 195 190 173 179 184 169 150 140 132 128 128 130 129 127 128 125 123 128 135 136 129 119 119 118 119 126 132 128 125 125 129 128 126 123 128 130 139 146 151 177
165 169 152 158 199 165 168 254 256 188 173 160 168 171 146 138 133 123 116 116 124 127 133 140 137 135 138 137 128 124 117 118 121 125 131 132 133 135 135 131 124 120 114 117 136 160 162 162 173